Regional Weather Roundup
Issued by NWS

Home | Current Version | Previous Version | Graphics & Text | Print | Product List | Glossary On
Versions: 1 2 3 4 5 6 7 8 9 10 11 12 13 14 15 16 17 18 19 20 21 22 23 24 25 26 27 28 29 30 31 32 33 34 35 36 37 38 39 40 41 42 43 44 45 46 47 48 49 50
644
ASUS43 KLOT 281908
RWRIL

ILLINOIS REGIONAL WEATHER ROUNDUP
NATIONAL WEATHER SERVICE CHICAGO/ROMEOVILLE IL
200 PM CDT SAT MAY 28 2016

NOTE: "FAIR" INDICATES FEW OR NO CLOUDS BELOW 12,000 FEET WITH NO
SIGNIFICANT WEATHER AND/OR OBSTRUCTIONS TO VISIBILITY.

* THESE STATIONS ARE NOT UNDER NWS QUALITY CONTROL. THEY ALSO MAY NOT
  REPORT WEATHER SUCH AS PRECIPITATION OR FOG.

ILZ001-002-007-009-015-016-024-282000-
NORTHWEST ILLINOIS

CITY           SKY/WX    TMP DP  RH WIND       PRES   REMARKS
MOLINE         MOSUNNY   83  65  54 S13G26    29.83F HX  85
STERLING*      MOSUNNY   80  66  62 S10G16    29.86F HX  82
SAVANNA*       MOSUNNY   83  65  55 S17G23    29.83F HX  85
$$

ILZ003-004-008-010-011-017-018-282000-
NORTH CENTRAL ILLINOIS

CITY           SKY/WX    TMP DP  RH WIND       PRES   REMARKS
ROCKFORD       PTSUNNY   82  63  52 SW15      29.89F HX  83
FREEPORT*      PTSUNNY   79  65  63 S16G23    29.88F HX  81
ROCHELLE*      PTSUNNY   81  64  55 S20G25    29.88F HX  82
DE KALB*       PTSUNNY   77  67  71 S20G25    29.91F
$$

ILZ005-006-012>014-019>023-282000-
NORTHEAST ILLINOIS

CITY           SKY/WX    TMP DP  RH WIND       PRES   REMARKS
CHICAGO-OHARE  CLOUDY    77  65  66 S16G25    29.92S
CHICAGO-MIDWAY CLOUDY    77  63  61 S16G26    29.93S
AURORA         CLOUDY    80  65  59 S15G23    29.91F HX  82
LANSING*       CLOUDY    75  64  67 S18G24    29.96R
JOLIET*        CLOUDY    78  68  71 S10G20    29.93F
WAUKEGAN       LGT RAIN  78  66  66 S18G24    29.90S HX  80
DUPAGE AIRPORT CLOUDY    78  65  63 S16G24    29.91F HX  80
KANKAKEE*      PTSUNNY   78  67  70 S17       29.96F
WHEELING       CLOUDY    76  63  64 S18       29.93S
MORRIS*        CLOUDY    79  67  66 S14       29.91F HX  81
ROMEOVILLE*    CLOUDY    77  63  60 S18       29.93F
NORTHERLY ISL    N/A     75  63  66 S14         N/A
NORTHERLY ISL    N/A     75  63  66 S14         N/A
$$

LMZ740>746-282000-
SOUTHERN LAKE MICHIGAN

STATION/POSITION SKY/WX   TEMP    WIND        PRES    VSBY  WAVE
                          AIR SEA DIR/SP/G                  HT/PER
                          (F)     (DEG/KT/KT) (MB)    (MI)  (FT/S)
SOUTHERN BUOY              56 50  160/ 12/ 14 1013.2R         1/ 3
WILMETTE HARBOR            68 55  220/ 14/ 19   N/A           2/ 3
HARRISON CRIB              71     200/ 24/ 25   N/A
BURNHAM HARBOR             75     180/ 15/ 23   N/A
CALUMET HARBOR             75     190/ 13/ 19 1013.2F
BURNS HARBOR               75     180/ 13/ 23 1014.2F
MICHIGAN CITY              75     180/ 20/ 24   N/A
MICHIGAN CITY 6N           70 58  200/ 17/ 23   N/A           2/ 3
ST. JOSEPH                 69 60  190/ 12/ 16   N/A           3/ 3
$$

ILZ025>027-034>036-040-047-049-050-058-095>099-282000-
WEST-CENTRAL ILLINOIS

CITY           SKY/WX    TMP DP  RH WIND       PRES   REMARKS
QUINCY         CLOUDY    79  66  64 S14G22    29.86S HX  81
GALESBURG*     MOSUNNY   79  65  63 S16G22    29.86F HX  81
MACOMB*        MOSUNNY   80  67  64 S20       29.88F HX  82
JACKSONVILLE*  MOSUNNY   81  67  60 S15       29.90F HX  84
PITTSFIELD*    MOSUNNY   80  68  65 S10G18    29.90F HX  83
$$

ILZ028>032-037-038-041>044-048-051>054-059>061-282000-
CENTRAL ILLINOIS

CITY           SKY/WX    TMP DP  RH WIND       PRES   REMARKS
PONTIAC        CLOUDY    82  66  58 S17G25    29.93F HX  84
BLOOMINGTON    PTSUNNY   82  68  62 S21G28    29.93F HX  85
DECATUR        MOSUNNY   82  67  60 S20G31    29.94F HX  84
PEORIA         SUNNY     82  64  54 S18       29.88F HX  83
LACON*         MOSUNNY   81  64  55 SW14      29.87F HX  82
LINCOLN*       MOSUNNY   82  67  60 S14G21    29.91F HX  85
SPRINGFIELD    MOSUNNY   85  67  54 S14G21    29.91F HX  87
TAYLORVILLE    MOSUNNY   80  69  68 S16G22    29.94S HX  83
$$

ILZ033-039-045-046-055>057-062-063-282000-
EAST-CENTRAL ILLINOIS

CITY           SKY/WX    TMP DP  RH WIND       PRES   REMARKS
CHAMPAIGN      CLOUDY    78  67  68 S23       29.96F HX  80
RANTOUL*       CLOUDY    79  68  69 S20G25    29.96F HX  81
MATTOON        PTSUNNY   76  65  68 S15G24    29.98F
PARIS*         MOSUNNY   78  69  71 S10       30.00F HX  81
$$

ILZ079-100>102-282000-
SOUTHWEST ILLINOIS

CITY           SKY/WX    TMP DP  RH WIND       PRES   REMARKS
ALTON          MOSUNNY   81  68  65 S18       29.94S HX  83
BELLEVILLE     SUNNY     82  70  66 VRB6      29.93F HX  86
CAHOKIA*       MOSUNNY   84  69  60 S15       29.93S HX  88
SPARTA*        MOSUNNY   79  68  68 S13G23    29.97S HX  82
$$

ILZ064>066-069>071-074>076-080>082-084>086-088>090-092>094-282000-
SOUTH-CENTRAL ILLINOIS

CITY           SKY/WX    TMP DP  RH WIND       PRES   REMARKS
CARBONDALE     PTSUNNY   80  68  66 S12G21    29.99S HX  83
CAIRO*         CLOUDY    80  67  64 S10G17    30.01S HX  82
EFFINGHAM*     CLOUDY    78  69  72 S12G18    30.00F HX  80
MARION         PTSUNNY   81  70  69 S14G20    30.00S HX  84
MT. VERNON     CLOUDY    81  68  65 SW14      30.00S HX  83
CENTRALIA*     CLOUDY    80  71  74 S15       29.97S HX  84
SALEM*         CLOUDY    79  68  68 S9G16     29.98S HX  81
METROPOLIS*    CLOUDY    81  70  70 S6        30.02S HX  84
$$

ILZ067-068-072-073-078-083-087-091-282000-
SOUTHEAST ILLINOIS

CITY           SKY/WX    TMP DP  RH WIND       PRES   REMARKS
LAWRENCEVILLE  CLOUDY    83  60  45 S24       30.00S HX  83
FLORA*         CLOUDY    80  69  67 S10G21    29.99F HX  83
FAIRFIELD*     MOSUNNY   80  68  65 S12       29.99F HX  83
HARRISBURG*    PTSUNNY   80  69  69 SW12      30.01S HX  83
ROBINSON*      CLOUDY    78  63  59 S10       30.00F HX  80
CARMI*         CLOUDY    79  69  71 S15       30.00S HX  81
$$

ABBREVIATIONS USED IN REMARKS
   TC - TEMPERATURE IN CELSIUS
  WCI - WIND CHILL INDEX
   HX - HEAT INDEX
  VSB - VISIBILITY
$$





USA.gov is the U.S. government's official web portal to all federal, state and local government web resources and services.